Location: Township of Marena
(38.1747°N, 99.6798°W)
Time: 02:36:52
(UTC+00:00)

CZ-2C R/B - Pass Details

Date: 26 October 2020
Orbit: 703 x 909 km, 98.1° (Epoch: 27 November)

Event Time Altitude Azimuth Distance (km) Brightness Sun altitude
Rises 01:56:46 0° 182° (S) 3,519 6.4 -26.1°
Reaches altitude 10° 01:59:16 10° 188° (S) 2,584 5.7 -26.6°
Maximum altitude 02:04:51 48° 261° (W) 1,171 4.2 -27.7°
Drops below altitude 10° 02:10:23 10° 335° (NNW) 2,555 6.0 -28.8°
Sets 02:12:51 0° 341° (NNW) 3,476 6.7 -29.3°
